Home > Weather > Melilla > Past weeks

Flag for Spain Past Weather in Melilla, Melilla, Spain — Yesterday and Last 2 Weeks

Now
70 °F

Sunny.


Feels Like: 70 °F
Forecast: 70 / 78 °F
Wind: No wind

Location: Melilla Airport

Current Time: Jun 29, 2016 at 7:34:05 AM

Latest Report: Jun 29, 2016 at 7:00 AM


Visibility: 10 mi

Pressure: 29.95 "Hg

Humidity: 88%

Dew Point: 66 °F

Location of MelillaLocation

Past Weather in Melilla — Graph

°F

Melilla Temperature Yesterday

Maximum temperature yesterday: 73 °F (at 1:00 PM)
Minimum temperature yesterday: 72 °F (at 6:00 AM)
Average temperature yesterday: 73 °F

High & Low Weather Summary for the Past Weeks

 TemperatureHumidityPressure
High86 °F (Jun 14, 11:00 AM)100% (Jun 27, 1:30 PM)30.27 "Hg (Jun 27, 1:30 PM)
Low63 °F (Jun 18, 6:00 AM)20% (Jun 17, 3:30 PM)29.77 "Hg (Jun 14, 8:00 PM)
Average74 °F67%30.02 "Hg
* Reported Jun 14 6:00 AM — Jun 29 6:30 AM, Melilla, Weather by CustomWeather, © 2016

Note: Actual official high and low records may vary slightly from our data, if they occured in-between our weather recording intervals... More about our weather records

Advertising

Melilla Weather History for the Previous 24 Hours

Scroll right to see more
 ConditionsComfort  
Time TempWeatherWind HumidityBarometerVisibility
6:30 AM
Wed, Jun 29
70 °FPassing clouds.No wind88%29.95 "HgN/A
6:00 AM70 °FPassing clouds.No wind88%29.95 "HgN/A
12:30 AM72 °FPartly cloudy.3 mph83%29.98 "HgN/A
12:00 AM72 °FPartly cloudy.6 mph88%29.98 "HgN/A
11:30 PM
Tue, Jun 28
72 °FPartly cloudy.3 mph88%29.98 "HgN/A
11:00 PM72 °FMostly cloudy.5 mph88%29.98 "HgN/A
10:30 PM73 °FMostly cloudy.7 mph83%29.95 "HgN/A
10:00 PM73 °FMostly cloudy.5 mph83%29.95 "HgN/A
9:30 PM73 °FMostly cloudy.3 mph83%29.95 "HgN/A
9:00 PM73 °FPartly cloudy.5 mph83%29.92 "HgN/A
8:30 PM73 °FPartly cloudy.No wind83%29.92 "HgN/A
8:00 PM73 °FBroken clouds.3 mph83%29.92 "Hg4 mi
7:30 PM73 °FMore clouds than sun.6 mph83%29.92 "Hg4 mi
7:00 PM73 °FMore clouds than sun.6 mph83%29.92 "Hg4 mi
6:30 PM73 °FMore clouds than sun.7 mph83%29.92 "Hg4 mi
6:00 PM73 °FMostly cloudy.7 mph83%29.92 "Hg4 mi
5:30 PM73 °FMostly cloudy.6 mph83%29.92 "Hg4 mi
5:00 PM73 °FFog.5 mph83%29.92 "Hg3 mi
4:30 PM73 °FFog.6 mph83%29.92 "Hg3 mi
4:00 PM73 °FFog.7 mph83%29.92 "Hg3 mi
3:30 PM73 °FFog.6 mph89%29.95 "Hg3 mi
3:00 PM73 °FFog.9 mph83%29.95 "Hg3 mi
2:30 PM73 °FFog.10 mph89%29.95 "Hg3 mi
2:00 PM73 °FFog.8 mph89%29.95 "Hg3 mi
1:30 PM73 °FFog.8 mph89%29.98 "Hg3 mi
1:00 PM73 °FFog.8 mph89%29.98 "Hg3 mi
12:30 PM72 °FFog.9 mph94%29.98 "Hg3 mi
12:00 PM72 °FFog.10 mph94%29.98 "Hg2 mi
11:30 AM72 °FFog.9 mph94%29.98 "Hg2 mi
11:00 AM72 °FFog.6 mph94%29.98 "Hg2 mi
10:30 AM72 °FFog.7 mph94%29.98 "Hg2 mi
10:00 AM72 °FFog.5 mph94%29.98 "Hg3 mi
9:30 AM72 °FFog.3 mph94%29.98 "Hg3 mi
9:00 AM72 °FFog.6 mph94%29.98 "Hg3 mi
8:30 AM72 °FMore clouds than sun.5 mph94%29.98 "Hg4 mi
8:00 AM72 °FCloudy.5 mph94%29.98 "Hg4 mi
7:30 AM72 °FCloudy.6 mph88%29.98 "Hg5 mi
7:00 AM72 °FCloudy.9 mph94%29.98 "Hg5 mi
Weather by CustomWeather, © 2016

See weather overviewHow to use our weather pages